Location: G�ppingen
(48.7089°N, 9.6563°E)
Time: 18:23:31
(UTC+02:00)

M-CUBED/EXP-1 PRIME - Pass Details

Date: 21 March 2019
Orbit: 430 x 671 km, 101.7° (Epoch: 19 April)

Event Time Altitude Azimuth Distance (km) Brightness Sun altitude
Rises 20:37:44 0° 19° (NNE) 2,909 ? -20.4°
Reaches altitude 10° 20:39:52 10° 19° (NNE) 2,028 ? -20.7°
Maximum altitude 20:44:19 87° 292° (WNW) 663 ? -21.3°
Drops below altitude 10° 20:48:55 10° 202° (SSW) 2,090 ? -22.0°
Sets 20:51:09 0° 202° (SSW) 3,005 ? -22.3°
